| time (UTC) | temp F | wind direction | speed knots | gust knots | rain 1hr in | rain 24hr in | rain mn in | humidity % | barometer mb |
| 20260506033927 | 64 | 247 | 3.5 | 8.7 | 0.00 | 0.00 | 0.00 | 69 | 1009.1 |
| 20260506033425 | 64 | 205 | 2.6 | 8.7 | 0.00 | 0.00 | 0.00 | 69 | 1008.9 |
| 20260506032925 | 64 | 250 | 3.5 | 12.2 | 0.00 | 0.00 | 0.00 | 68 | 1008.9 |
| 20260506032426 | 65 | 247 | 3.5 | 12.2 | 0.00 | 0.00 | 0.00 | 68 | 1008.9 |
| 20260506031925 | 65 | 229 | 4.3 | 13.0 | 0.00 | 0.00 | 0.00 | 67 | 1008.9 |
| 20260506031425 | 65 | 242 | 5.2 | 13.9 | 0.00 | 0.00 | 0.00 | 67 | 1008.9 |
| 20260506030926 | 65 | 223 | 5.2 | 13.9 | 0.00 | 0.00 | 0.00 | 66 | 1008.9 |
| 20260506030426 | 65 | 229 | 4.3 | 13.9 | 0.00 | 0.00 | 0.00 | 66 | 1009.1 |
| 20260506025925 | 65 | 236 | 4.3 | 13.0 | 0.00 | 0.00 | 0.00 | 66 | 1009.0 |
| 20260506025425 | 66 | 215 | 4.3 | 13.0 | 0.00 | 0.00 | 0.00 | 65 | 1008.9 |
| 20260506024926 | 66 | 227 | 5.2 | 13.0 | 0.00 | 0.00 | 0.00 | 64 | 1008.9 |
| 20260506024425 | 66 | 210 | 5.2 | 13.0 | 0.00 | 0.00 | 0.00 | 63 | 1008.9 |
| 20260506024157 | 66 | 223 | 5.2 | 14.8 | 0.00 | 0.00 | 0.00 | 63 | 1008.9 |
| 20260506023424 | 67 | 305 | 6.1 | 14.8 | 0.00 | 0.00 | 0.00 | 62 | 1009.0 |
| 20260506022926 | 67 | 220 | 5.2 | 14.8 | 0.00 | 0.00 | 0.00 | 61 | 1008.9 |
| 20260506022423 | 67 | 221 | 4.3 | 14.8 | 0.00 | 0.00 | 0.00 | 60 | 1008.9 |
| 20260506021921 | 67 | 200 | 5.2 | 18.2 | 0.00 | 0.00 | 0.00 | 59 | 1009.0 |
| 20260506021421 | 68 | 225 | 6.1 | 18.2 | 0.00 | 0.00 | 0.00 | 58 | 1008.8 |
| 20260506020919 | 68 | 199 | 5.2 | 16.5 | 0.00 | 0.00 | 0.00 | 57 | 1008.7 |
| 20260506020420 | 68 | 226 | 3.5 | 13.9 | 0.00 | 0.00 | 0.00 | 56 | 1008.7 |
| 20260506015918 | 68 | 223 | 3.5 | 11.3 | 0.00 | 0.00 | 0.00 | 56 | 1008.7 |
| 20260506015416 | 68 | 233 | 4.3 | 13.9 | 0.00 | 0.00 | 0.00 | 54 | 1008.7 |
| 20260506014917 | 69 | 198 | 4.3 | 13.9 | 0.00 | 0.00 | 0.00 | 54 | 1008.7 |
| 20260506014912 | 69 | 211 | 4.3 | 13.9 | 0.00 | 0.00 | 0.00 | 54 | 1008.7 |
| 20260506014134 | 69 | 191 | 4.3 | 13.9 | 0.00 | 0.00 | 0.00 | 53 | 1008.7 |
| 20260506013400 | 68 | 198 | 3.5 | 13.0 | 0.00 | 0.00 | 0.00 | 54 | 1008.7 |
| 20260506012859 | 69 | 207 | 4.3 | 9.6 | 0.00 | 0.00 | 0.00 | 53 | 1008.6 |
| 20260506012357 | 69 | 227 | 4.3 | 13.9 | 0.00 | 0.00 | 0.00 | 53 | 1008.6 |
| 20260506011859 | 69 | 199 | 3.5 | 13.9 | 0.00 | 0.00 | 0.00 | 54 | 1008.5 |
| 20260506011358 | 69 | 225 | 2.6 | 9.6 | 0.00 | 0.00 | 0.00 | 53 | 1008.4 |
| 20260506010858 | 69 | 184 | 2.6 | 7.8 | 0.00 | 0.00 | 0.00 | 54 | 1008.3 |
| 20260506010358 | 69 | 180 | 3.5 | 9.6 | 0.00 | 0.00 | 0.00 | 53 | 1008.3 |
| 20260506005857 | 69 | 219 | 3.5 | 9.6 | 0.00 | 0.00 | 0.00 | 53 | 1008.3 |
| 20260506005357 | 69 | 265 | 2.6 | 7.0 | 0.00 | 0.00 | 0.00 | 52 | 1008.1 |
| 20260506004856 | 69 | 211 | 3.5 | 11.3 | 0.00 | 0.00 | 0.00 | 52 | 1008.1 |
| 20260506004356 | 70 | 189 | 3.5 | 12.2 | 0.00 | 0.00 | 0.00 | 51 | 1008.1 |
| 20260506004126 | 70 | 233 | 3.5 | 12.2 | 0.00 | 0.00 | 0.00 | 50 | 1008.0 |
| 20260506003356 | 70 | 256 | 4.3 | 11.3 | 0.00 | 0.00 | 0.00 | 49 | 1007.9 |
| 20260506002857 | 71 | 197 | 4.3 | 11.3 | 0.00 | 0.00 | 0.00 | 48 | 1007.9 |
| 20260506002358 | 70 | 195 | 3.5 | 11.3 | 0.00 | 0.00 | 0.00 | 47 | 1007.8 |
| 20260506001857 | 71 | 216 | 4.3 | 11.3 | 0.00 | 0.00 | 0.00 | 46 | 1007.7 |
| 20260506001630 | 71 | 215 | 4.3 | 11.3 | 0.00 | 0.00 | 0.00 | 46 | 1007.7 |
| 20260506000852 | 71 | 204 | 4.3 | 13.0 | 0.00 | 0.00 | 0.00 | 46 | 1007.7 |
| 20260506000346 | 71 | 217 | 3.5 | 13.0 | 0.00 | 0.00 | 0.00 | 44 | 1007.6 |
| 20260505235844 | 71 | 219 | 3.5 | 11.3 | 0.00 | 0.00 | 0.00 | 44 | 1007.5 |
| 20260505235615 | 71 | 256 | 3.5 | 11.3 | 0.00 | 0.00 | 0.00 | 44 | 1007.5 |
| 20260505234848 | 72 | 294 | 4.3 | 13.0 | 0.00 | 0.00 | 0.00 | 43 | 1007.5 |
| 20260505234843 | 72 | 211 | 4.3 | 13.0 | 0.00 | 0.00 | 0.00 | 43 | 1007.5 |
| 20260505233841 | 72 | 261 | 3.5 | 15.6 | 0.00 | 0.00 | 0.00 | 44 | 1007.4 |
| 20260505233341 | 72 | 217 | 4.3 | 15.6 | 0.00 | 0.00 | 0.00 | 42 | 1007.4 |
| 20260505232841 | 72 | 207 | 3.5 | 10.4 | 0.00 | 0.00 | 0.00 | 43 | 1007.4 |
| 20260505232341 | 73 | 220 | 3.5 | 12.2 | 0.00 | 0.00 | 0.00 | 42 | 1007.3 |
| 20260505231842 | 73 | 232 | 3.5 | 12.2 | 0.00 | 0.00 | 0.00 | 42 | 1007.3 |
| 20260505231341 | 73 | 261 | 2.6 | 8.7 | 0.00 | 0.00 | 0.00 | 41 | 1007.2 |
| 20260505231112 | 73 | 231 | 2.6 | 13.0 | 0.00 | 0.00 | 0.00 | 41 | 1007.1 |
| 20260505230341 | 73 | 238 | 3.5 | 13.0 | 0.00 | 0.00 | 0.00 | 42 | 1007.0 |
| 20260505225840 | 73 | 206 | 4.3 | 14.8 | 0.00 | 0.00 | 0.00 | 41 | 1007.1 |
| 20260505225341 | 74 | 259 | 5.2 | 14.8 | 0.00 | 0.00 | 0.00 | 39 | 1007.0 |
| 20260505224842 | 74 | 236 | 4.3 | 15.6 | 0.00 | 0.00 | 0.00 | 39 | 1006.9 |
| 20260505224342 | 74 | 246 | 3.5 | 15.6 | 0.00 | 0.00 | 0.00 | 38 | 1006.8 |
| 20260505223841 | 74 | 244 | 4.3 | 12.2 | 0.00 | 0.00 | 0.00 | 40 | 1006.8 |
| 20260505223335 | 75 | 259 | 5.2 | 16.5 | 0.00 | 0.00 | 0.00 | 37 | 1006.8 |
| 20260505222830 | 75 | 270 | 4.3 | 16.5 | 0.00 | 0.00 | 0.00 | 37 | 1006.8 |
| 20260505222556 | 76 | 200 | 4.3 | 15.6 | 0.00 | 0.00 | 0.00 | 36 | 1006.7 |
| 20260505221824 | 76 | 213 | 4.3 | 14.8 | 0.00 | 0.00 | 0.00 | 37 | 1006.8 |
| 20260505221324 | 76 | 252 | 5.2 | 18.2 | 0.00 | 0.00 | 0.00 | 37 | 1006.8 |
| 20260505220827 | 76 | 223 | 6.1 | 18.2 | 0.00 | 0.00 | 0.00 | 35 | 1006.7 |
| 20260505220326 | 76 | 202 | 5.2 | 18.2 | 0.00 | 0.00 | 0.00 | 34 | 1006.8 |
| 20260505215825 | 76 | 202 | 5.2 | 18.2 | 0.00 | 0.00 | 0.00 | 35 | 1006.8 |
| 20260505215326 | 77 | 216 | 5.2 | 17.4 | 0.00 | 0.00 | 0.00 | 37 | 1006.7 |
| 20260505214825 | 76 | 240 | 5.2 | 16.5 | 0.00 | 0.00 | 0.00 | 36 | 1006.7 |
| 20260505214330 | 76 | 259 | 5.2 | 15.6 | 0.00 | 0.00 | 0.00 | 36 | 1006.7 |
| 20260505214325 | 76 | 242 | 5.2 | 16.5 | 0.00 | 0.00 | 0.00 | 36 | 1006.8 |
| 20260505213324 | 76 | 210 | 5.2 | 15.6 | 0.00 | 0.00 | 0.00 | 37 | 1006.6 |
| 20260505212822 | 76 | 277 | 5.2 | 15.6 | 0.00 | 0.00 | 0.00 | 36 | 1006.7 |
| 20260505212323 | 76 | 275 | 5.2 | 15.6 | 0.00 | 0.00 | 0.00 | 36 | 1006.5 |
| 20260505211823 | 77 | 206 | 5.2 | 16.5 | 0.00 | 0.00 | 0.00 | 35 | 1006.5 |
| 20260505211322 | 77 | 204 | 6.1 | 20.9 | 0.00 | 0.00 | 0.00 | 34 | 1006.5 |
| 20260505210821 | 77 | 226 | 7.8 | 20.9 | 0.00 | 0.00 | 0.00 | 33 | 1006.5 |
| 20260505210318 | 78 | 199 | 7.8 | 24.3 | 0.00 | 0.00 | 0.00 | 33 | 1006.5 |
| 20260505205817 | 79 | 255 | 7.8 | 24.3 | 0.00 | 0.00 | 0.00 | 31 | 1006.4 |
| 20260505205316 | 79 | 222 | 7.0 | 19.1 | 0.00 | 0.00 | 0.00 | 34 | 1006.4 |
| 20260505205047 | 80 | 246 | 7.0 | 19.1 | 0.00 | 0.00 | 0.00 | 34 | 1006.3 |
| 20260505204547 | 79 | 296 | 7.0 | 22.6 | 0.00 | 0.00 | 0.00 | 36 | 1006.3 |
| 20260505203821 | 79 | 257 | 6.1 | 18.2 | 0.00 | 0.00 | 0.00 | 36 | 1006.2 |
| 20260505203816 | 79 | 259 | 7.0 | 22.6 | 0.00 | 0.00 | 0.00 | 33 | 1006.3 |
| 20260505202817 | 80 | 283 | 6.1 | 14.8 | 0.00 | 0.00 | 0.00 | 33 | 1006.5 |
| 20260505202318 | 80 | 191 | 5.2 | 13.9 | 0.00 | 0.00 | 0.00 | 35 | 1006.4 |
| 20260505201816 | 80 | 248 | 6.1 | 17.4 | 0.00 | 0.00 | 0.00 | 38 | 1006.6 |
| 20260505201317 | 79 | 252 | 7.0 | 17.4 | 0.00 | 0.00 | 0.00 | 39 | 1006.4 |
| 20260505200817 | 80 | 220 | 7.0 | 19.1 | 0.00 | 0.00 | 0.00 | 38 | 1006.4 |
| 20260505200316 | 80 | 196 | 6.1 | 19.1 | 0.00 | 0.00 | 0.00 | 37 | 1006.4 |
| 20260505195817 | 80 | 233 | 6.1 | 17.4 | 0.00 | 0.00 | 0.00 | 37 | 1006.6 |
| 20260505195318 | 79 | 228 | 7.0 | 17.4 | 0.00 | 0.00 | 0.00 | 38 | 1006.6 |
| 20260505194817 | 80 | 279 | 7.8 | 21.7 | 0.00 | 0.00 | 0.00 | 38 | 1006.6 |
| 20260505194320 | 80 | 272 | 6.1 | 21.7 | 0.00 | 0.00 | 0.00 | 35 | 1006.6 |
| 20260505193820 | 80 | 255 | 5.2 | 17.4 | 0.00 | 0.00 | 0.00 | 38 | 1006.7 |
| 20260505193317 | 79 | 254 | 7.0 | 20.9 | 0.00 | 0.00 | 0.00 | 39 | 1006.8 |
| 20260505192815 | 79 | 277 | 7.8 | 20.9 | 0.00 | 0.00 | 0.00 | 40 | 1006.8 |
| 20260505192311 | 80 | 193 | 7.0 | 18.2 | 0.00 | 0.00 | 0.00 | 39 | 1006.6 |
| 20260505191803 | 80 | 205 | 5.2 | 16.5 | 0.00 | 0.00 | 0.00 | 36 | 1006.8 |
| 20260505191527 | 80 | 209 | 6.1 | 20.0 | 0.00 | 0.00 | 0.00 | 41 | 1006.8 |
| 20260505190751 | 80 | 298 | 7.0 | 20.0 | 0.00 | 0.00 | 0.00 | 36 | 1006.9 |
| 20260505190245 | 80 | 250 | 7.0 | 17.4 | 0.00 | 0.00 | 0.00 | 36 | 1007.0 |
| 20260505185739 | 81 | 223 | 7.0 | 21.7 | 0.00 | 0.00 | 0.00 | 37 | 1007.0 |
| 20260505185233 | 81 | 234 | 7.0 | 21.7 | 0.00 | 0.00 | 0.00 | 38 | 1007.1 |
| 20260505184727 | 80 | 246 | 6.1 | 18.2 | 0.00 | 0.00 | 0.00 | 40 | 1007.1 |
| 20260505184453 | 80 | 219 | 6.1 | 18.2 | 0.00 | 0.00 | 0.00 | 42 | 1007.2 |
| 20260505183715 | 80 | 273 | 5.2 | 18.2 | 0.00 | 0.00 | 0.00 | 40 | 1007.2 |
| 20260505183209 | 82 | 215 | 5.2 | 14.8 | 0.00 | 0.00 | 0.00 | 39 | 1007.3 |
| 20260505182703 | 82 | 267 | 5.2 | 14.8 | 0.00 | 0.00 | 0.00 | 41 | 1007.4 |
| 20260505182157 | 82 | 259 | 6.1 | 20.0 | 0.00 | 0.00 | 0.00 | 41 | 1007.5 |
| 20260505181651 | 81 | 249 | 7.0 | 20.0 | 0.00 | 0.00 | 0.00 | 41 | 1007.4 |
| 20260505181145 | 79 | 223 | 8.7 | 23.5 | 0.00 | 0.00 | 0.00 | 42 | 1007.6 |
| 20260505180638 | 79 | 204 | 7.8 | 23.5 | 0.00 | 0.00 | 0.00 | 38 | 1007.6 |
| 20260505180404 | 80 | 198 | 5.2 | 18.2 | 0.00 | 0.00 | 0.00 | 42 | 1007.6 |
| 20260505175627 | 80 | 209 | 6.1 | 19.1 | 0.00 | 0.00 | 0.00 | 45 | 1007.5 |
| 20260505175121 | 80 | 190 | 4.3 | 19.1 | 0.00 | 0.00 | 0.00 | 40 | 1007.6 |
| 20260505174615 | 81 | 270 | 5.2 | 14.8 | 0.00 | 0.00 | 0.00 | 37 | 1007.7 |
| 20260505174109 | 81 | 325 | 7.0 | 17.4 | 0.00 | 0.00 | 0.00 | 43 | 1007.7 |
| 20260505173604 | 81 | 200 | 6.1 | 17.4 | 0.00 | 0.00 | 0.00 | 39 | 1007.7 |
| 20260505173057 | 81 | 314 | 5.2 | 15.6 | 0.00 | 0.00 | 0.00 | 42 | 1007.6 |
| 20260505172551 | 80 | 225 | 5.2 | 12.2 | 0.00 | 0.00 | 0.00 | 43 | 1007.8 |
| 20260505172045 | 80 | 192 | 7.0 | 23.5 | 0.00 | 0.00 | 0.00 | 47 | 1007.9 |
| 20260505171539 | 80 | 206 | 6.1 | 23.5 | 0.00 | 0.00 | 0.00 | 45 | 1008.1 |
| 20260505171033 | 80 | 263 | 4.3 | 14.8 | 0.00 | 0.00 | 0.00 | 45 | 1008.0 |
| 20260505170527 | 80 | 246 | 5.2 | 14.8 | 0.00 | 0.00 | 0.00 | 44 | 1008.3 |
| 20260505170021 | 80 | 233 | 5.2 | 13.9 | 0.00 | 0.00 | 0.00 | 44 | 1008.3 |
| 20260505165519 | 79 | 254 | 5.2 | 13.9 | 0.00 | 0.00 | 0.00 | 45 | 1008.4 |
| 20260505165005 | 78 | 200 | 6.1 | 13.0 | 0.00 | 0.00 | 0.00 | 45 | 1008.5 |
| 20260505164730 | 79 | 244 | 4.3 | 13.0 | 0.00 | 0.00 | 0.00 | 47 | 1008.5 |
| 20260505164224 | 78 | 218 | 3.5 | 9.6 | 0.00 | 0.00 | 0.00 | 48 | 1008.5 |
| 20260505163447 | 78 | 240 | 4.3 | 12.2 | 0.00 | 0.00 | 0.00 | 47 | 1008.8 |
| 20260505162946 | 78 | 192 | 4.3 | 11.3 | 0.00 | 0.00 | 0.00 | 49 | 1008.8 |
| 20260505162941 | 77 | 209 | 4.3 | 12.2 | 0.00 | 0.00 | 0.00 | 49 | 1008.7 |
| 20260505161929 | 78 | 216 | 5.2 | 13.0 | 0.00 | 0.00 | 0.00 | 51 | 1008.7 |
| 20260505161654 | 76 | 199 | 6.1 | 13.9 | 0.00 | 0.00 | 0.00 | 48 | 1008.7 |
| 20260505160917 | 76 | 185 | 6.1 | 14.8 | 0.00 | 0.00 | 0.00 | 47 | 1008.8 |
| 20260505160411 | 77 | 196 | 5.2 | 14.8 | 0.00 | 0.00 | 0.00 | 48 | 1008.9 |
| 20260505153335 | 76 | 201 | 4.3 | 9.6 | 0.00 | 0.00 | 0.00 | 50 | 1009.2 |
| 20260505152834 | 75 | 256 | 3.5 | 9.6 | 0.00 | 0.00 | 0.00 | 53 | 1009.3 |
| 20260505152605 | 75 | 222 | 2.6 | 7.8 | 0.00 | 0.00 | 0.00 | 53 | 1009.3 |
| 20260505151835 | 75 | 222 | 3.5 | 8.7 | 0.00 | 0.00 | 0.00 | 50 | 1009.3 |
| 20260505151333 | 75 | 264 | 4.3 | 11.3 | 0.00 | 0.00 | 0.00 | 51 | 1009.3 |
| 20260505151107 | 74 | 258 | 4.3 | 11.3 | 0.00 | 0.00 | 0.00 | 56 | 1009.4 |
| 20260505150334 | 75 | 207 | 4.3 | 10.4 | 0.00 | 0.00 | 0.00 | 54 | 1009.4 |
| 20260505140333 | 70 | 241 | 2.6 | 7.8 | 0.00 | 0.00 | 0.00 | 61 | 1010.0 |
| 20260505124831 | 64 | 302 | 3.5 | 10.4 | 0.00 | 0.00 | 0.00 | 66 | 1009.8 |
| 20260505124332 | 64 | 277 | 3.5 | 10.4 | 0.00 | 0.00 | 0.00 | 66 | 1009.7 |
| 20260505123830 | 64 | 249 | 3.5 | 9.6 | 0.00 | 0.00 | 0.00 | 68 | 1009.7 |
| 20260505123334 | 63 | 258 | 3.5 | 8.7 | 0.00 | 0.00 | 0.00 | 70 | 1009.3 |
| 20260505123329 | 63 | 251 | 3.5 | 8.7 | 0.00 | 0.00 | 0.00 | 70 | 1009.3 |
| 20260505122329 | 62 | 263 | 4.3 | 8.7 | 0.00 | 0.00 | 0.00 | 69 | 1009.3 |
| 20260505122058 | 62 | 257 | 3.5 | 8.7 | 0.00 | 0.00 | 0.00 | 72 | 1009.3 |
| 20260505121327 | 62 | 220 | 2.6 | 7.0 | 0.00 | 0.00 | 0.00 | 72 | 1009.4 |
| 20260505120827 | 61 | 211 | 2.6 | 7.8 | 0.00 | 0.00 | 0.00 | 73 | 1009.3 |
| 20260505120329 | 61 | 221 | 2.6 | 7.8 | 0.00 | 0.00 | 0.00 | 72 | 1009.3 |
| 20260505115825 | 60 | 223 | 1.7 | 7.0 | 0.00 | 0.00 | 0.00 | 76 | 1009.4 |
| 20260505115325 | 60 | 243 | 1.7 | 6.1 | 0.00 | 0.00 | 0.00 | 77 | 1009.5 |
| 20260505114827 | 59 | 197 | 1.7 | 6.1 | 0.00 | 0.00 | 0.00 | 77 | 1009.4 |
| 20260505114558 | 58 | 293 | 1.7 | 6.1 | 0.00 | 0.00 | 0.00 | 80 | 1009.4 |
| 20260505113825 | 57 | 266 | 1.7 | 6.1 | 0.00 | 0.00 | 0.00 | 82 | 1009.6 |
| 20260505113325 | 56 | 257 | 0.9 | 3.5 | 0.00 | 0.00 | 0.00 | 85 | 1009.6 |
| 20260505112823 | 55 | 234 | 0.9 | 3.5 | 0.00 | 0.00 | 0.00 | 86 | 1009.5 |
| 20260505112324 | 54 | 237 | 0.9 | 3.5 | 0.00 | 0.00 | 0.00 | 87 | 1009.5 |
| 20260505111817 | 53 | 246 | 1.7 | 5.2 | 0.00 | 0.00 | 0.00 | 87 | 1009.5 |
| 20260505111311 | 53 | 240 | 1.7 | 6.1 | 0.00 | 0.00 | 0.00 | 87 | 1009.5 |
| 20260505110805 | 53 | 230 | 1.7 | 6.1 | 0.00 | 0.00 | 0.00 | 87 | 1009.5 |
| 20260505110259 | 53 | 246 | 1.7 | 6.1 | 0.00 | 0.00 | 0.00 | 88 | 1009.4 |
| 20260505102212 | 54 | 232 | 0.9 | 3.5 | 0.00 | 0.00 | 0.00 | 84 | 1009.5 |
| 20260505102207 | 54 | 243 | 1.7 | 5.2 | 0.00 | 0.00 | 0.00 | 83 | 1009.4 |
| 20260505101201 | 53 | 286 | 1.7 | 5.2 | 0.00 | 0.00 | 0.00 | 83 | 1009.5 |
| 20260505101156 | 53 | 207 | 0.9 | 4.3 | 0.00 | 0.00 | 0.00 | 81 | 1009.4 |
| 20260505100147 | 52 | 254 | 0.9 | 4.3 | 0.00 | 0.00 | 0.00 | 82 | 1009.3 |
| 20260505095642 | 52 | 269 | 0.9 | 3.5 | 0.00 | 0.00 | 0.00 | 82 | 1009.3 |
| 20260505095407 | 52 | 229 | 0.9 | 3.5 | 0.00 | 0.00 | 0.00 | 81 | 1009.2 |
| 20260505094900 | 52 | 230 | 0.9 | 3.5 | 0.00 | 0.00 | 0.00 | 81 | 1009.2 |
| 20260505094123 | 52 | 268 | 0.9 | 3.5 | 0.00 | 0.00 | 0.00 | 81 | 1009.1 |
| 20260505093618 | 52 | 273 | 0.9 | 3.5 | 0.00 | 0.00 | 0.00 | 81 | 1009.1 |
| 20260505093111 | 52 | 257 | 1.7 | 6.1 | 0.00 | 0.00 | 0.00 | 81 | 1009.1 |
| 20260505092606 | 51 | 222 | 1.7 | 6.1 | 0.00 | 0.00 | 0.00 | 82 | 1009.0 |
| 20260505092100 | 51 | 225 | 0.9 | 4.3 | 0.00 | 0.00 | 0.00 | 81 | 1008.9 |
| 20260505091553 | 51 | 253 | 0.9 | 3.5 | 0.00 | 0.00 | 0.00 | 81 | 1008.9 |
| 20260505091048 | 52 | 279 | 0.9 | 3.5 | 0.00 | 0.00 | 0.00 | 80 | 1008.7 |
| 20260505090542 | 52 | 266 | 0.9 | 3.5 | 0.00 | 0.00 | 0.00 | 80 | 1008.6 |
| 20260505090036 | 52 | 239 | 0.9 | 3.5 | 0.00 | 0.00 | 0.00 | 80 | 1008.6 |
| 20260505085530 | 51 | 245 | 0.9 | 3.5 | 0.00 | 0.00 | 0.00 | 81 | 1008.5 |
| 20260505085254 | 51 | 271 | 0.9 | 5.2 | 0.00 | 0.00 | 0.00 | 81 | 1008.5 |
| 20260505084517 | 51 | 269 | 0.9 | 5.2 | 0.00 | 0.00 | 0.00 | 81 | 1008.5 |
| 20260505084012 | 51 | 258 | 0.9 | 5.2 | 0.00 | 0.00 | 0.00 | 80 | 1008.4 |
| 20260505083505 | 51 | 240 | 0.9 | 5.2 | 0.00 | 0.00 | 0.00 | 80 | 1008.5 |
| 20260505082959 | 52 | 256 | 0.9 | 5.2 | 0.00 | 0.00 | 0.00 | 80 | 1008.6 |
| 20260505082454 | 51 | 252 | 0.9 | 5.2 | 0.00 | 0.00 | 0.00 | 81 | 1008.6 |
| 20260505081947 | 51 | 240 | 0.9 | 3.5 | 0.00 | 0.00 | 0.00 | 81 | 1008.6 |
| 20260505081441 | 51 | 248 | 0.9 | 3.5 | 0.00 | 0.00 | 0.00 | 80 | 1008.7 |
| 20260505080936 | 51 | 229 | 0.9 | 3.5 | 0.00 | 0.00 | 0.00 | 80 | 1008.6 |
| 20260505080429 | 52 | 239 | 0.9 | 2.6 | 0.00 | 0.00 | 0.00 | 79 | 1008.6 |
| 20260505075923 | 52 | 286 | 0.9 | 3.5 | 0.00 | 0.00 | 0.00 | 78 | 1008.7 |
| 20260505075655 | 53 | 275 | 0.9 | 3.5 | 0.00 | 0.00 | 0.00 | 78 | 1008.6 |
| 20260505074924 | 53 | 261 | 0.9 | 5.2 | 0.00 | 0.00 | 0.00 | 78 | 1008.5 |
| 20260505074422 | 53 | 286 | 0.9 | 5.2 | 0.00 | 0.00 | 0.00 | 78 | 1008.5 |
| 20260505074154 | 53 | 250 | 0.9 | 3.5 | 0.00 | 0.00 | 0.00 | 77 | 1008.4 |
| 20260505073421 | 53 | 278 | 0.9 | 5.2 | 0.00 | 0.00 | 0.00 | 78 | 1008.4 |
| 20260505072918 | 53 | 265 | 0.9 | 5.2 | 0.00 | 0.00 | 0.00 | 79 | 1008.5 |
| 20260505072417 | 53 | 178 | 0.9 | 4.3 | 0.00 | 0.00 | 0.00 | 79 | 1008.4 |
| 20260505071916 | 52 | 231 | 0.9 | 4.3 | 0.00 | 0.00 | 0.00 | 80 | 1008.3 |
| 20260505071417 | 52 | 211 | 0.9 | 4.3 | 0.00 | 0.00 | 0.00 | 80 | 1008.3 |
| 20260505070916 | 52 | 214 | 1.7 | 4.3 | 0.00 | 0.00 | 0.00 | 80 | 1008.3 |
| 20260505070647 | 52 | 217 | 0.9 | 3.5 | 0.00 | 0.00 | 0.00 | 79 | 1008.4 |
| 20260505065917 | 52 | 255 | 0.9 | 4.3 | 0.00 | 0.00 | 0.00 | 79 | 1008.5 |
| 20260505065413 | 52 | 219 | 0.9 | 4.3 | 0.00 | 0.00 | 0.00 | 79 | 1008.5 |
| 20260505064912 | 52 | 226 | 0.9 | 3.5 | 0.00 | 0.00 | 0.00 | 79 | 1008.5 |
| 20260505064412 | 52 | 241 | 1.7 | 6.1 | 0.00 | 0.00 | 0.00 | 79 | 1008.5 |
| 20260505063912 | 52 | 229 | 1.7 | 6.1 | 0.00 | 0.00 | 0.00 | 79 | 1008.6 |
| 20260505063413 | 52 | 220 | 1.7 | 5.2 | 0.00 | 0.00 | 0.00 | 79 | 1008.5 |
| 20260505062913 | 52 | 255 | 1.7 | 4.3 | 0.00 | 0.00 | 0.00 | 79 | 1008.5 |
| 20260505062414 | 52 | 212 | 0.9 | 4.3 | 0.00 | 0.00 | 0.00 | 77 | 1008.6 |
| 20260505061913 | 53 | 243 | 1.7 | 4.3 | 0.00 | 0.00 | 0.00 | 77 | 1008.6 |
| 20260505061413 | 53 | 221 | 1.7 | 7.0 | 0.00 | 0.00 | 0.00 | 76 | 1008.6 |
| 20260505061138 | 53 | 211 | 1.7 | 7.0 | 0.00 | 0.00 | 0.00 | 76 | 1008.7 |
| 20260505060401 | 53 | 260 | 1.7 | 7.0 | 0.00 | 0.00 | 0.00 | 76 | 1008.7 |
| 20260505055854 | 53 | 275 | 1.7 | 7.0 | 0.00 | 0.00 | 0.00 | 74 | 1008.7 |
| 20260505055619 | 54 | 232 | 1.7 | 6.1 | 0.00 | 0.00 | 0.00 | 75 | 1008.7 |
| 20260505054842 | 54 | 245 | 1.7 | 3.5 | 0.00 | 0.00 | 0.00 | 74 | 1008.7 |
| 20260505054337 | 53 | 229 | 1.7 | 6.1 | 0.00 | 0.00 | 0.00 | 74 | 1008.8 |
| 20260505053831 | 54 | 223 | 1.7 | 6.1 | 0.00 | 0.00 | 0.00 | 74 | 1008.8 |
| 20260505053556 | 53 | 213 | 1.7 | 6.1 | 0.00 | 0.00 | 0.00 | 73 | 1008.7 |
| 20260505052819 | 53 | 260 | 1.7 | 7.0 | 0.00 | 0.00 | 0.00 | 74 | 1008.7 |
| 20260505052313 | 53 | 246 | 2.6 | 7.0 | 0.00 | 0.00 | 0.00 | 73 | 1008.7 |
| 20260505051806 | 53 | 212 | 2.6 | 6.1 | 0.00 | 0.00 | 0.00 | 73 | 1008.8 |
| 20260505051301 | 53 | 240 | 2.6 | 6.1 | 0.00 | 0.00 | 0.00 | 73 | 1008.8 |
| 20260505050801 | 53 | 194 | 1.7 | 6.1 | 0.00 | 0.00 | 0.00 | 72 | 1008.9 |
| 20260505050257 | 53 | 216 | 2.6 | 6.1 | 0.00 | 0.00 | 0.00 | 71 | 1008.8 |
| 20260505041756 | 54 | 210 | 1.7 | 7.0 | 0.00 | 0.00 | 0.00 | 68 | 1008.9 |
| 20260505041527 | 54 | 218 | 1.7 | 4.3 | 0.00 | 0.00 | 0.00 | 68 | 1008.9 |
| 20260505040755 | 54 | 203 | 1.7 | 4.3 | 0.00 | 0.00 | 0.00 | 67 | 1008.8 |
| 20260505040256 | 54 | 236 | 1.7 | 4.3 | 0.00 | 0.00 | 0.00 | 66 | 1008.9 |
| 20260505035756 | 55 | 219 | 2.6 | 5.2 | 0.00 | 0.00 | 0.00 | 65 | 1008.9 |
| 20260505035253 | 55 | 213 | 2.6 | 5.2 | 0.00 | 0.00 | 0.00 | 64 | 1008.9 |
| 20260505034754 | 55 | 204 | 2.6 | 5.2 | 0.00 | 0.00 | 0.00 | 65 | 1008.9 |
| 20260505034254 | 55 | 217 | 2.6 | 7.0 | 0.00 | 0.00 | 0.00 | 64 | 1008.9 |